Date String (YYYY-MM-DD hh:mm:ss) UTC,Instrument flags,absolute air pressure of the measurement (hPa),sample flow rate (lpm),inlet stack bypass flow (lpm),air temperature of the measurement (°C),ambient temperature measured by the external sensor (°C),aerosol sample conditioner tube jacket temperature (°C),OPC LED temperature (°C),internal box temperature (°C),relative humidity of the measurement (%),span deviation,mass concentration of particles derived from Lorenz-Mie calculation of OPC scattering (μg/m³),mass concentration of particles derived from Lorenz-Mie calculation of OPC scattering (μg/m³),mass concentration of particles derived from Lorenz-Mie calculation of OPC scattering (μg/m³)
DateTimeUTC,F1_M11,P_M11,Q1_M11,Q2_M11,T1_M11,T2_M11,T3_M11,T4_M11,T5_M11,U1_M11,ZSPAN_M11,X2_M11,X0_M11,X1_M11
2023-10-11 11:00:00,SystemResetWarning,0817.1,4.99,000.00,028.8,026.2,000.0,037.5,030.3,12.5,0000.0,0003.82,0009.33,0003.31
2023-10-11 11:01:00,SystemResetWarning,0817.1,5.00,000.00,028.7,026.4,000.0,037.4,030.3,12.4,0000.0,0003.75,0009.20,0003.28
2023-10-11 11:02:00,SystemResetWarning,0817.0,5.00,000.00,028.7,026.6,000.0,037.4,030.3,12.3,0000.0,0003.70,0009.08,0003.25
2023-10-11 11:03:00,SystemResetWarning,0817.1,5.01,000.00,028.7,026.8,000.0,037.4,030.3,12.3,0000.0,0003.65,0008.40,0003.21
2023-10-11 11:04:00,SystemResetWarning,0817.0,5.00,000.00,028.7,026.9,000.0,037.4,030.3,12.4,0000.0,0003.63,0007.69,0003.18
2023-10-11 11:05:00,SystemResetWarning,0817.1,5.00,000.00,028.8,027.0,000.0,037.4,030.3,12.5,0000.0,0003.59,0007.63,0003.16
2023-10-11 11:06:00,SystemResetWarning,0817.0,5.00,000.00,028.8,027.1,000.0,037.4,030.4,12.5,0000.0,0003.57,0007.55,0003.13
2023-10-11 11:07:00,SystemResetWarning,0817.1,5.00,000.00,028.8,027.2,000.0,037.4,030.4,12.7,0000.0,0003.54,0007.56,0003.11
2023-10-11 11:08:00,SystemResetWarning,0817.0,5.00,000.00,028.8,027.2,000.0,037.3,030.4,12.9,0000.0,0003.52,0007.37,0003.10
2023-10-11 11:09:00,SystemResetWarning,0817.0,4.99,000.00,028.8,027.3,000.0,037.4,030.4,12.7,0000.0,0003.49,0007.36,0003.08
2023-10-11 11:10:00,SystemResetWarning,0817.0,4.99,000.00,028.8,027.3,000.0,037.4,030.5,12.7,0000.0,0003.48,0006.50,0003.06
2023-10-11 11:11:00,SystemResetWarning,0817.0,5.00,000.00,028.9,027.3,000.0,037.4,030.5,12.6,0000.0,0003.48,0006.26,0003.05
2023-10-11 11:12:00,SystemResetWarning,0817.0,5.00,000.00,028.9,027.4,000.0,037.4,030.5,12.6,0000.0,0003.47,0006.23,0003.05
2023-10-11 11:13:00,SystemResetWarning,0817.0,5.00,000.00,028.9,027.4,000.0,037.4,030.5,12.5,0000.0,0003.52,0006.33,0003.07
2023-10-11 11:14:00,SystemResetWarning,0817.0,5.00,000.00,028.9,027.4,000.0,037.4,030.5,12.5,0000.0,0003.56,0006.39,0003.11
2023-10-11 11:15:00,SystemResetWarning,0817.1,5.00,000.00,028.9,027.5,000.0,037.4,030.5,12.4,0000.0,0003.59,0006.37,0003.13
2023-10-11 11:16:00,SystemResetWarning,0817.0,5.00,000.00,028.9,027.5,000.0,037.4,030.5,12.4,0000.0,0003.62,0006.15,0003.16
2023-10-11 11:17:00,SystemResetWarning,0817.0,5.00,000.00,028.9,027.5,000.0,037.4,030.5,12.4,0000.0,0003.65,0006.26,0003.20
2023-10-11 11:18:00,SystemResetWarning,0817.0,5.00,000.00,028.9,027.5,000.0,037.4,030.6,12.4,0000.0,0003.66,0006.52,0003.22
2023-10-11 11:19:00,SystemResetWarning,0817.0,5.00,000.00,028.9,027.5,000.0,037.4,030.5,12.5,0000.0,0003.67,0006.52,0003.24
2023-10-11 11:20:00,SystemResetWarning,0816.9,5.00,000.00,029.0,027.5,000.0,037.4,030.6,12.7,0000.0,0003.70,0006.59,0003.27
2023-10-11 11:21:00,SystemResetWarning,0816.9,5.00,000.00,029.0,027.6,000.0,037.4,030.6,12.9,0000.0,0003.72,0006.63,0003.29
2023-10-11 11:22:00,SystemResetWarning,0816.9,4.99,000.00,029.0,027.5,000.0,037.4,030.6,12.7,0000.0,0003.72,0006.48,0003.29
2023-10-11 11:23:00,SystemResetWarning,0816.9,5.00,000.00,029.0,027.6,000.0,037.4,030.6,12.6,0000.0,0003.73,0006.48,0003.30
2023-10-11 11:24:00,SystemResetWarning,0816.9,5.00,000.00,029.0,027.6,000.0,037.4,030.6,12.5,0000.0,0003.71,0006.42,0003.30
2023-10-11 11:25:00,SystemResetWarning,0817.0,5.01,000.00,029.0,027.6,000.0,037.4,030.6,12.4,0000.0,0003.69,0006.52,0003.29
2023-10-11 11:26:00,SystemResetWarning,0816.9,5.00,000.00,029.0,027.6,000.0,037.4,030.6,12.4,0000.0,0003.68,0006.54,0003.29
2023-10-11 11:27:00,SystemResetWarning,0816.9,5.00,000.00,029.0,027.6,000.0,037.5,030.6,12.3,0000.0,0003.68,0006.59,0003.28
2023-10-11 11:28:00,SystemResetWarning,0816.9,5.00,000.00,029.0,027.6,000.0,037.5,030.6,12.1,0000.0,0003.69,0006.53,0003.27
2023-10-11 11:29:00,SystemResetWarning,0816.9,5.01,000.00,029.0,027.6,000.0,037.4,030.6,12.0,0000.0,0003.66,0006.16,0003.27
2023-10-11 11:30:00,SystemResetWarning,0816.9,5.00,000.00,029.0,027.6,000.0,037.5,030.6,12.0,0000.0,0003.66,0005.99,0003.27
2023-10-11 11:31:00,SystemResetWarning,0816.9,5.00,000.00,029.0,027.6,000.0,037.5,030.7,12.0,0000.0,0003.69,0006.53,0003.28
2023-10-11 11:32:00,SystemResetWarning,0816.9,5.00,000.00,029.1,027.6,000.0,037.5,030.7,12.0,0000.0,0003.71,0006.63,0003.30
2023-10-11 11:33:00,SystemResetWarning,0816.9,5.00,000.00,029.1,027.7,000.0,037.5,030.7,11.9,0000.0,0003.71,0006.59,0003.32
2023-10-11 11:34:00,SystemResetWarning,0816.9,5.00,000.00,029.1,027.7,000.0,037.5,030.7,12.1,0000.0,0003.75,0006.67,0003.34
2023-10-11 11:35:00,SystemResetWarning,0816.9,5.00,000.00,029.1,027.7,000.0,037.5,030.7,12.2,0000.0,0003.78,0006.74,0003.35
2023-10-11 11:36:00,SystemResetWarning,0816.9,5.00,000.00,029.1,027.7,000.0,037.5,030.7,12.3,0000.0,0003.79,0006.64,0003.38
2023-10-11 11:37:00,SystemResetWarning,0816.9,5.00,000.00,029.1,027.7,000.0,037.5,030.7,12.2,0000.0,0003.83,0006.70,0003.40
2023-10-11 11:38:00,SystemResetWarning,0816.9,5.00,000.00,029.1,027.7,000.0,037.5,030.7,12.3,0000.0,0003.84,0006.64,0003.40
2023-10-11 11:39:00,SystemResetWarning,0816.9,5.00,000.00,029.1,027.7,000.0,037.5,030.7,12.5,0000.0,0003.85,0006.64,0003.41
2023-10-11 11:40:00,SystemResetWarning,0817.0,5.00,000.00,029.1,027.7,000.0,037.5,030.7,12.6,0000.0,0003.89,0006.78,0003.43
2023-10-11 11:41:00,SystemResetWarning,0817.1,5.00,000.00,029.1,027.7,000.0,037.5,030.7,12.6,0000.0,0003.92,0006.89,0003.44
2023-10-11 11:42:00,SystemResetWarning,0817.1,5.00,000.00,029.1,027.7,000.0,037.6,030.7,12.5,0000.0,0003.91,0006.63,0003.46
2023-10-11 11:43:00,SystemResetWarning,0817.1,5.01,000.00,029.1,027.7,000.0,037.5,030.7,12.5,0000.0,0003.88,0006.40,0003.44
2023-10-11 11:44:00,SystemResetWarning,0817.1,5.00,000.00,029.1,027.7,000.0,037.6,030.7,12.4,0000.0,0003.86,0006.36,0003.42
2023-10-11 11:45:00,SystemResetWarning,0817.1,5.00,000.00,029.1,027.7,000.0,037.6,030.7,12.3,0000.0,0003.85,0006.38,0003.41
2023-10-11 11:46:00,SystemResetWarning,0817.1,5.00,000.00,029.1,027.7,000.0,037.6,030.7,12.3,0000.0,0003.86,0006.48,0003.42
2023-10-11 11:47:00,SystemResetWarning,0817.1,5.00,000.00,029.1,027.7,000.0,037.6,030.7,12.3,0000.0,0003.84,0006.39,0003.41
2023-10-11 11:48:00,SystemResetWarning,0817.1,5.00,000.00,029.1,027.7,000.0,037.6,030.7,12.3,0000.0,0003.78,0006.55,0003.40
2023-10-11 11:49:00,SystemResetWarning,0817.1,4.99,000.00,029.1,027.7,000.0,037.6,030.7,12.3,0000.0,0003.77,0007.45,0003.40
2023-10-11 11:50:00,SystemResetWarning,0817.1,5.00,000.00,029.1,027.7,000.0,037.6,030.7,12.3,0000.0,0003.81,0007.68,0003.40
2023-10-11 11:51:00,SystemResetWarning,0817.1,4.99,000.00,029.1,027.7,000.0,037.6,030.7,12.3,0000.0,0003.82,0007.77,0003.40
2023-10-11 11:52:00,SystemResetWarning,0817.1,5.00,000.00,029.1,027.7,000.0,037.6,030.7,12.3,0000.0,0003.80,0007.75,0003.39
2023-10-11 11:53:00,SystemResetWarning,0817.1,5.01,000.00,029.1,027.7,000.0,037.6,030.7,12.3,0000.0,0003.79,0007.54,0003.37
2023-10-11 11:54:00,SystemResetWarning,0817.2,5.01,000.00,029.1,027.7,000.0,037.6,030.8,12.3,0000.0,0003.80,0007.61,0003.38
2023-10-11 11:55:00,SystemResetWarning,0817.2,5.00,000.00,029.2,027.7,000.0,037.6,030.8,12.3,0000.0,0003.81,0007.65,0003.38
2023-10-11 11:56:00,SystemResetWarning,0817.2,5.00,000.00,029.2,027.7,000.0,037.6,030.8,12.3,0000.0,0003.79,0007.60,0003.38
2023-10-11 11:57:00,SystemResetWarning,0817.2,5.00,000.00,029.2,027.7,000.0,037.6,030.7,12.3,0000.0,0003.81,0007.74,0003.37
2023-10-11 11:58:00,SystemResetWarning,0817.2,5.00,000.00,029.2,027.7,000.0,037.6,030.7,12.2,0000.0,0003.83,0007.85,0003.38
2023-10-11 11:59:00,SystemResetWarning,0817.2,5.00,000.00,029.2,027.7,000.0,037.6,030.7,12.2,0000.0,0003.86,0007.83,0003.39
